TimePST,TemperatureF,Dew PointF,Humidity,Sea Level PressureIn,VisibilityMPH,Wind Direction,Wind SpeedMPH,Gust SpeedMPH,PrecipitationIn,Events,Conditions,WindDirDegrees,DateUTC
12:50 AM,52.0,50.0,93,30.21,15.0,North,6.9,-,N/A,,Overcast,10,2012-11-05 08:50:00
1:50 AM,59.2,53.2,81,30.21,15.0,West,11.5,-,N/A,,Mostly Cloudy,260,2012-11-05 09:50:00
2:50 AM,55.8,51.3,85,30.19,15.0,SE,4.6,-,N/A,,Overcast,130,2012-11-05 10:50:00
3:50 AM,52.2,50.0,92,30.18,15.0,North,4.6,-,N/A,,Mostly Cloudy,360,2012-11-05 11:50:00
4:50 AM,49.6,48.9,97,30.17,15.0,NNE,4.6,-,N/A,,Mostly Cloudy,20,2012-11-05 12:50:00
5:50 AM,52.9,50.4,91,30.17,15.0,NW,6.9,-,N/A,,Overcast,310,2012-11-05 13:50:00
6:50 AM,52.5,49.8,91,30.19,15.0,NW,4.6,-,N/A,,Overcast,310,2012-11-05 14:50:00
7:50 AM,57.0,52.5,85,30.21,15.0,ESE,3.5,-,N/A,,Overcast,110,2012-11-05 15:50:00
8:50 AM,59.5,50.7,73,30.23,15.0,NW,6.9,-,N/A,,Overcast,310,2012-11-05 16:50:00
9:50 AM,61.3,49.8,66,30.25,15.0,West,8.1,-,N/A,,Overcast,280,2012-11-05 17:50:00
10:50 AM,62.2,51.1,67,30.26,15.0,NNE,6.9,-,N/A,,Overcast,30,2012-11-05 18:50:00
11:50 AM,63.3,46.6,54,30.26,15.0,NW,11.5,-,N/A,,Overcast,310,2012-11-05 19:50:00
12:50 PM,64.8,43.5,46,30.25,15.0,WNW,11.5,-,N/A,,Overcast,300,2012-11-05 20:50:00
1:50 PM,65.7,41.7,42,30.24,15.0,WNW,6.9,-,N/A,,Overcast,300,2012-11-05 21:50:00
2:50 PM,64.6,41.4,43,30.24,15.0,NW,5.8,-,N/A,,Overcast,320,2012-11-05 22:50:00
3:50 PM,63.1,41.5,45,30.22,15.0,NW,9.2,-,N/A,,Overcast,310,2012-11-05 23:50:00
4:50 PM,57.4,40.8,54,30.22,15.0,North,4.6,-,N/A,,Overcast,350,2012-11-06 00:50:00
5:50 PM,50.7,42.1,72,30.22,15.0,West,3.5,-,N/A,,Overcast,260,2012-11-06 01:50:00
6:50 PM,52.5,42.1,68,30.20,15.0,SW,4.6,-,N/A,,Overcast,220,2012-11-06 02:50:00
10:50 PM,45.1,41.2,86,30.17,15.0,NW,5.8,-,N/A,,Overcast,320,2012-11-06 06:50:00
11:50 PM,45.3,41.0,85,30.17,15.0,West,4.6,-,N/A,,Overcast,280,2012-11-06 07:50:00